TimeCDT,TemperatureF,Dew PointF,Humidity,Sea Level PressureIn,VisibilityMPH,Wind Direction,Wind SpeedMPH,Gust SpeedMPH,PrecipitationIn,Events,Conditions,WindDirDegrees,DateUTC
12:15 AM,28.4,21.2,74,30.16,10.0,NW,4.6,-,N/A,,Clear,310,2013-03-25 05:15:00
12:35 AM,26.6,21.2,80,30.16,10.0,West,3.5,-,N/A,,Clear,270,2013-03-25 05:35:00
12:55 AM,26.6,21.2,80,30.17,10.0,West,6.9,-,N/A,,Clear,270,2013-03-25 05:55:00
1:15 AM,26.6,21.2,80,30.17,10.0,West,8.1,-,N/A,,Clear,270,2013-03-25 06:15:00
1:35 AM,26.6,21.2,80,30.17,10.0,West,8.1,-,N/A,,Scattered Clouds,280,2013-03-25 06:35:00
1:55 AM,28.4,23.0,80,30.17,10.0,West,9.2,-,N/A,,Mostly Cloudy,280,2013-03-25 06:55:00
2:15 AM,30.2,23.0,75,30.17,10.0,West,10.4,-,N/A,,Overcast,280,2013-03-25 07:15:00
2:35 AM,30.2,21.2,69,30.17,10.0,WNW,12.7,-,N/A,,Mostly Cloudy,290,2013-03-25 07:35:00
2:55 AM,28.4,21.2,74,30.17,10.0,WNW,11.5,-,N/A,,Scattered Clouds,300,2013-03-25 07:55:00
3:15 AM,28.4,21.2,74,30.17,10.0,NW,11.5,-,N/A,,Clear,320,2013-03-25 08:15:00
3:35 AM,28.4,21.2,74,30.17,10.0,NW,13.8,-,N/A,,Clear,310,2013-03-25 08:35:00
3:55 AM,28.4,21.2,74,30.17,10.0,NW,12.7,-,N/A,,Clear,310,2013-03-25 08:55:00
4:15 AM,26.6,21.2,80,30.17,10.0,NW,12.7,-,N/A,,Clear,310,2013-03-25 09:15:00
4:35 AM,26.6,19.4,74,30.17,10.0,NW,15.0,19.6,N/A,,Clear,320,2013-03-25 09:35:00
4:55 AM,26.6,19.4,74,30.17,10.0,NW,12.7,-,N/A,,Clear,310,2013-03-25 09:55:00
5:15 AM,26.6,19.4,74,30.18,10.0,NW,15.0,-,N/A,,Clear,320,2013-03-25 10:15:00
5:35 AM,26.6,19.4,74,30.18,10.0,NW,12.7,-,N/A,,Clear,310,2013-03-25 10:35:00
5:55 AM,24.8,19.4,80,30.19,10.0,NW,12.7,-,N/A,,Clear,310,2013-03-25 10:55:00
6:15 AM,24.8,19.4,80,30.19,10.0,NW,12.7,-,N/A,,Clear,310,2013-03-25 11:15:00
6:35 AM,24.8,19.4,80,30.19,10.0,WNW,13.8,-,N/A,,Clear,300,2013-03-25 11:35:00
6:55 AM,24.8,19.4,80,30.20,10.0,WNW,17.3,-,N/A,,Clear,300,2013-03-25 11:55:00
7:15 AM,24.8,19.4,80,30.20,10.0,WNW,15.0,-,N/A,,Scattered Clouds,300,2013-03-25 12:15:00
7:35 AM,26.6,19.4,74,30.20,10.0,NW,17.3,-,N/A,,Scattered Clouds,310,2013-03-25 12:35:00
7:55 AM,26.6,19.4,74,30.22,10.0,WNW,15.0,-,N/A,,Clear,300,2013-03-25 12:55:00
8:15 AM,26.6,19.4,74,30.23,10.0,WNW,15.0,-,N/A,,Scattered Clouds,300,2013-03-25 13:15:00
8:35 AM,26.6,19.4,74,30.24,10.0,NW,15.0,-,N/A,,Scattered Clouds,310,2013-03-25 13:35:00
8:55 AM,28.4,21.2,74,30.25,10.0,NW,13.8,23.0,N/A,,Mostly Cloudy,320,2013-03-25 13:55:00
9:15 AM,28.4,21.2,74,30.25,10.0,NW,18.4,24.2,N/A,,Overcast,320,2013-03-25 14:15:00
9:35 AM,28.4,21.2,74,30.25,10.0,NW,20.7,26.5,N/A,,Overcast,320,2013-03-25 14:35:00
9:55 AM,30.2,23.0,75,30.26,10.0,NNW,20.7,26.5,N/A,,Overcast,330,2013-03-25 14:55:00
10:15 AM,30.2,23.0,75,30.27,10.0,NW,17.3,27.6,N/A,,Overcast,320,2013-03-25 15:15:00
10:35 AM,30.2,23.0,75,30.28,10.0,NW,18.4,32.2,N/A,,Mostly Cloudy,320,2013-03-25 15:35:00
10:55 AM,32.0,23.0,69,30.28,10.0,NW,20.7,27.6,N/A,,Overcast,320,2013-03-25 15:55:00
11:15 AM,32.0,23.0,69,30.29,10.0,NNW,23.0,27.6,N/A,,Overcast,330,2013-03-25 16:15:00
11:35 AM,32.0,23.0,69,30.30,10.0,NNW,19.6,24.2,N/A,,Mostly Cloudy,330,2013-03-25 16:35:00
11:55 AM,32.0,23.0,69,30.30,10.0,NNW,16.1,26.5,N/A,,Mostly Cloudy,330,2013-03-25 16:55:00
12:15 PM,32.0,23.0,69,30.30,10.0,North,16.1,23.0,N/A,,Mostly Cloudy,350,2013-03-25 17:15:00
12:35 PM,32.0,24.8,75,30.30,10.0,NNW,15.0,-,N/A,,Mostly Cloudy,330,2013-03-25 17:35:00
12:55 PM,33.8,23.0,65,30.31,10.0,NW,16.1,24.2,N/A,,Scattered Clouds,320,2013-03-25 17:55:00
1:15 PM,33.8,24.8,70,30.31,10.0,NW,18.4,23.0,N/A,,Mostly Cloudy,310,2013-03-25 18:15:00
1:35 PM,33.8,23.0,65,30.31,10.0,NNW,16.1,27.6,N/A,,Mostly Cloudy,330,2013-03-25 18:35:00
1:55 PM,33.8,24.8,70,30.30,10.0,NNW,17.3,25.3,N/A,,Scattered Clouds,330,2013-03-25 18:55:00
2:15 PM,35.6,26.6,70,30.30,10.0,NW,16.1,27.6,N/A,,Scattered Clouds,320,2013-03-25 19:15:00
2:35 PM,33.8,23.0,65,30.30,10.0,NW,23.0,27.6,N/A,,Mostly Cloudy,310,2013-03-25 19:35:00
2:55 PM,35.6,24.8,65,30.30,10.0,WNW,25.3,32.2,N/A,,Mostly Cloudy,300,2013-03-25 19:55:00
3:15 PM,33.8,23.0,65,30.30,10.0,NW,20.7,26.5,N/A,,Overcast,310,2013-03-25 20:15:00
3:35 PM,33.8,23.0,65,30.30,10.0,NW,19.6,26.5,N/A,,Overcast,310,2013-03-25 20:35:00
3:55 PM,33.8,23.0,65,30.30,10.0,NW,17.3,25.3,N/A,,Mostly Cloudy,310,2013-03-25 20:55:00
4:15 PM,33.8,23.0,65,30.30,10.0,NW,19.6,25.3,N/A,,Mostly Cloudy,320,2013-03-25 21:15:00
4:35 PM,33.8,23.0,65,30.30,10.0,NW,20.7,27.6,N/A,,Overcast,320,2013-03-25 21:35:00
4:55 PM,33.8,23.0,65,30.30,10.0,NW,16.1,24.2,N/A,Snow,Light Snow,310,2013-03-25 21:55:00
5:15 PM,33.8,23.0,65,30.31,10.0,NW,17.3,-,N/A,,Overcast,310,2013-03-25 22:15:00
5:35 PM,32.0,24.8,75,30.31,10.0,WNW,13.8,21.9,N/A,,Overcast,300,2013-03-25 22:35:00
5:55 PM,33.8,23.0,65,30.31,10.0,WNW,16.1,21.9,N/A,,Overcast,300,2013-03-25 22:55:00
6:15 PM,33.8,23.0,65,30.32,10.0,NW,17.3,21.9,N/A,,Overcast,310,2013-03-25 23:15:00
6:35 PM,33.8,23.0,65,30.32,10.0,NW,11.5,-,N/A,,Overcast,320,2013-03-25 23:35:00
6:55 PM,33.8,23.0,65,30.32,10.0,NW,15.0,-,N/A,,Overcast,320,2013-03-25 23:55:00
7:15 PM,32.0,21.2,64,30.33,10.0,NW,13.8,20.7,N/A,,Overcast,320,2013-03-26 00:15:00
7:35 PM,32.0,23.0,69,30.34,10.0,NW,9.2,-,N/A,,Overcast,320,2013-03-26 00:35:00
7:55 PM,32.0,23.0,69,30.34,10.0,NW,12.7,-,N/A,,Overcast,320,2013-03-26 00:55:00
8:15 PM,32.0,23.0,69,30.34,10.0,NW,9.2,-,N/A,,Overcast,310,2013-03-26 01:15:00
8:35 PM,32.0,23.0,69,30.35,10.0,NW,9.2,-,N/A,,Scattered Clouds,310,2013-03-26 01:35:00
8:55 PM,32.0,23.0,69,30.35,10.0,NW,8.1,-,N/A,,Clear,310,2013-03-26 01:55:00
9:15 PM,30.2,23.0,75,30.36,10.0,WNW,6.9,-,N/A,,Scattered Clouds,300,2013-03-26 02:15:00
9:35 PM,30.2,23.0,75,30.36,10.0,WNW,4.6,-,N/A,,Scattered Clouds,300,2013-03-26 02:35:00
9:55 PM,30.2,23.0,75,30.37,10.0,West,4.6,-,N/A,,Clear,280,2013-03-26 02:55:00
10:15 PM,30.2,23.0,75,30.37,10.0,WNW,6.9,-,N/A,,Clear,300,2013-03-26 03:15:00
10:35 PM,30.2,23.0,75,30.37,10.0,NW,8.1,-,N/A,,Clear,310,2013-03-26 03:35:00
10:55 PM,30.2,23.0,75,30.37,10.0,NW,6.9,-,N/A,,Mostly Cloudy,310,2013-03-26 03:55:00
11:15 PM,30.2,23.0,75,30.38,10.0,NW,5.8,-,N/A,,Scattered Clouds,310,2013-03-26 04:15:00
11:35 PM,28.4,23.0,80,30.38,10.0,WNW,4.6,-,N/A,,Clear,300,2013-03-26 04:35:00
11:55 PM,28.4,23.0,80,30.38,10.0,WNW,5.8,-,N/A,,Clear,290,2013-03-26 04:55:00